| time (UTC) | temp F | wind direction | speed MPH | gust MPH | rain 1hr in | rain 24hr in | rain mn in | humidity % | barometer mb |
| 20260506001504 | 47 | 1 | 4.0 | 8.0 | 0.00 | 0.00 | 0.00 | 82 | 1014.5 |
| 20260506000003 | 48 | 351 | 2.0 | 8.0 | 0.00 | 0.00 | 0.00 | 82 | 1014.5 |
| 20260505234504 | 48 | 357 | 3.0 | 7.0 | 0.00 | 0.00 | 0.00 | 81 | 1014.6 |
| 20260505233004 | 48 | 1 | 2.0 | 9.0 | 0.00 | 0.00 | 0.00 | 80 | 1014.7 |
| 20260505231504 | 48 | 21 | 3.0 | 7.0 | 0.00 | 0.00 | 0.00 | 79 | 1014.7 |
| 20260505224504 | 49 | 30 | 2.0 | 7.0 | 0.00 | 0.00 | 0.00 | 77 | 1014.8 |
| 20260505221504 | 49 | 32 | 3.0 | 14.0 | 0.00 | 0.00 | 0.00 | 79 | 1014.7 |
| 20260505220005 | 50 | 56 | 3.0 | 12.0 | 0.00 | 0.00 | 0.00 | 79 | 1014.6 |
| 20260505214504 | 50 | 308 | 2.0 | 6.0 | 0.00 | 0.00 | 0.00 | 81 | 1014.6 |
| 20260505213004 | 50 | 35 | 3.0 | 10.0 | 0.00 | 0.00 | 0.00 | 80 | 1014.6 |
| 20260505211504 | 51 | 43 | 3.0 | 13.0 | 0.00 | 0.00 | 0.00 | 80 | 1014.4 |
| 20260505210004 | 51 | 60 | 3.0 | 10.0 | 0.00 | 0.00 | 0.00 | 80 | 1014.3 |
| 20260505204504 | 51 | 42 | 1.0 | 8.0 | 0.00 | 0.00 | 0.00 | 80 | 1014.4 |
| 20260505203004 | 51 | 49 | 2.0 | 8.0 | 0.00 | 0.00 | 0.00 | 79 | 1014.3 |
| 20260505200004 | 52 | 345 | 2.0 | 9.0 | 0.00 | 0.00 | 0.00 | 76 | 1014.1 |
| 20260505194504 | 52 | 348 | 3.0 | 9.0 | 0.00 | 0.00 | 0.00 | 75 | 1013.7 |
| 20260505191503 | 53 | 75 | 2.0 | 10.0 | 0.00 | 0.00 | 0.00 | 75 | 1013.4 |
| 20260505184503 | 55 | 86 | 2.0 | 8.0 | 0.00 | 0.00 | 0.00 | 74 | 1012.9 |
| 20260505183029 | 56 | 50 | 3.0 | 9.0 | 0.00 | 0.00 | 0.00 | 73 | 1012.8 |
| 20260505181504 | 56 | 286 | 2.0 | 8.0 | 0.00 | 0.00 | 0.00 | 73 | 1012.8 |
| 20260505180004 | 57 | 337 | 3.0 | 10.0 | 0.00 | 0.00 | 0.00 | 72 | 1012.7 |
| 20260505174504 | 58 | 22 | 4.0 | 10.0 | 0.00 | 0.00 | 0.00 | 64 | 1012.7 |
| 20260505173005 | 58 | 10 | 3.0 | 9.0 | 0.00 | 0.00 | 0.00 | 64 | 1012.7 |
| 20260505164504 | 59 | 341 | 5.0 | 12.0 | 0.00 | 0.00 | 0.00 | 62 | 1012.6 |
| 20260505163004 | 60 | 356 | 5.0 | 10.0 | 0.00 | 0.00 | 0.00 | 60 | 1012.6 |
| 20260505161504 | 60 | 34 | 6.0 | 13.0 | 0.00 | 0.00 | 0.00 | 61 | 1012.6 |
| 20260505153004 | 59 | 349 | 5.0 | 10.0 | 0.00 | 0.00 | 0.00 | 64 | 1012.9 |
| 20260505151504 | 59 | 330 | 3.0 | 12.0 | 0.00 | 0.00 | 0.00 | 65 | 1012.8 |
| 20260505123004 | 58 | 78 | 2.0 | 8.0 | 0.00 | 0.00 | 0.00 | 66 | 1013.4 |
| 20260505121503 | 59 | 356 | 3.0 | 8.0 | 0.00 | 0.00 | 0.00 | 66 | 1013.3 |
| 20260505120005 | 59 | 4 | 2.0 | 8.0 | 0.00 | 0.00 | 0.00 | 66 | 1013.4 |
| 20260505114505 | 59 | 343 | 4.0 | 8.0 | 0.00 | 0.00 | 0.00 | 68 | 1013.3 |
| 20260505113004 | 58 | 339 | 3.0 | 6.0 | 0.00 | 0.00 | 0.00 | 69 | 1013.5 |
| 20260505111504 | 58 | 30 | 3.0 | 9.0 | 0.00 | 0.00 | 0.00 | 68 | 1013.6 |
| 20260505101504 | 57 | 317 | 2.0 | 7.0 | 0.00 | 0.00 | 0.00 | 74 | 1013.8 |
| 20260505100004 | 57 | 343 | 3.0 | 8.0 | 0.00 | 0.00 | 0.00 | 75 | 1013.9 |
| 20260505094504 | 56 | 55 | 2.0 | 5.0 | 0.00 | 0.00 | 0.00 | 76 | 1014.0 |
| 20260505093004 | 55 | 30 | 1.0 | 3.0 | 0.00 | 0.00 | 0.00 | 77 | 1014.1 |
| 20260505091504 | 55 | 10 | 3.0 | 6.0 | 0.00 | 0.00 | 0.00 | 77 | 1014.1 |
| 20260505090003 | 55 | 342 | 2.0 | 8.0 | 0.00 | 0.00 | 0.00 | 79 | 1014.1 |
| 20260505084504 | 54 | 310 | 1.0 | 5.0 | 0.00 | 0.00 | 0.00 | 80 | 1014.2 |
| 20260505083004 | 53 | 51 | 1.0 | 7.0 | 0.00 | 0.00 | 0.00 | 83 | 1014.2 |
| 20260505080003 | 53 | 353 | 3.0 | 6.0 | 0.00 | 0.00 | 0.00 | 86 | 1014.3 |
| 20260505074503 | 52 | 340 | 3.0 | 6.0 | 0.00 | 0.00 | 0.00 | 88 | 1014.4 |
| 20260505073003 | 51 | 353 | 3.0 | 9.0 | 0.00 | 0.00 | 0.00 | 88 | 1014.4 |
| 20260505070004 | 51 | 350 | 3.0 | 7.0 | 0.00 | 0.00 | 0.00 | 88 | 1014.3 |
| 20260505064504 | 51 | 29 | 3.0 | 6.0 | 0.00 | 0.00 | 0.00 | 90 | 1014.5 |
| 20260505063004 | 50 | 349 | 1.0 | 7.0 | 0.00 | 0.00 | 0.00 | 90 | 1014.6 |
| 20260505060003 | 50 | 22 | 0.0 | 2.0 | 0.00 | 0.00 | 0.00 | 90 | 1014.7 |
| 20260505054503 | 50 | 23 | 1.0 | 3.0 | 0.00 | 0.00 | 0.00 | 90 | 1014.6 |
| 20260505053004 | 50 | 348 | 1.0 | 2.0 | 0.00 | 0.00 | 0.00 | 91 | 1014.6 |
| 20260505041504 | 49 | 342 | 0.0 | 1.0 | 0.00 | 0.00 | 0.00 | 91 | 1014.4 |
| 20260505040004 | 49 | 342 | 0.0 | 0.0 | 0.00 | 0.00 | 0.00 | 91 | 1014.4 |
| 20260505034504 | 49 | 342 | 0.0 | 1.0 | 0.00 | 0.00 | 0.00 | 91 | 1014.5 |
| 20260505033004 | 49 | 342 | 0.0 | 1.0 | 0.00 | 0.00 | 0.00 | 91 | 1014.7 |
| 20260505030004 | 49 | 344 | 0.0 | 1.0 | 0.00 | 0.00 | 0.00 | 91 | 1014.6 |
| 20260505024504 | 49 | 344 | 0.0 | 2.0 | 0.00 | 0.00 | 0.00 | 91 | 1014.6 |
| 20260505021504 | 49 | 46 | 0.0 | 1.0 | 0.00 | 0.00 | 0.00 | 91 | 1014.8 |
| 20260505020004 | 49 | 46 | 0.0 | 1.0 | 0.00 | 0.00 | 0.00 | 91 | 1015.0 |
| 20260505014504 | 49 | 333 | 0.0 | 1.0 | 0.00 | 0.00 | 0.00 | 91 | 1014.9 |
| 20260505010005 | 49 | 162 | 0.0 | 1.0 | 0.00 | 0.00 | 0.00 | 91 | 1015.2 |
| 20260505004504 | 48 | 162 | 0.0 | 1.0 | 0.00 | 0.00 | 0.00 | 91 | 1015.4 |
| 20260505003004 | 48 | 162 | 0.0 | 0.0 | 0.00 | 0.00 | 0.00 | 90 | 1015.6 |